sat.trackr.live / text

‹ back to catalog

STARLINK-31315

NORAD 58884 · 2024-020J

PAYLOAD ACTIVE UNKNOWN

§ Identity

Operator
Country
US
Launch date
2024-01-29
Launch site
AFWTR
Launch vehicle
Mass (kg)
RCS (m²)

Purposes: comms

External: N2YO · Heavens-Above · Gunter

§ Orbital elements

Epoch: 2026-05-25T03:59:49.932096Z

Period
94.11 min
Inclination
53.1617°
Eccentricity
0.0000865
Mean motion
15.30195779 rev/d
Perigee alt
474.6 km
Apogee alt
475.8 km
Semi-major
6,853.4 km
B*
3.6204e-5
RAAN
301.2413°
Arg perigee
76.8447°
Mean anomaly
283.2650°
Rev number
13,014

§ Raw data

STARLINK-313151 58884U 24020J   26145.16655014  .00000713  00000+0  36204-4 0  99962 58884  53.1617 301.2413 0000865  76.8447 283.2650 15.30195779130149

JSON: /api/v1/satellites/58884 · /tle

For live sub-satellite position, see the globe view (requires WebGL).

§ Visibility from observer

Set your observer location to see the next 7 days of passes ≥ 10°. The values pass through the URL so the page stays shareable.

No JS? Fill the form by hand. The geolocation button needs JavaScript.